Regional Weather Roundup
Issued by NWS Cleveland, OH

Home | Current Version | Previous Version | Graphics & Text | Print | Product List | Glossary On
Versions: 1 2 3 4 5 6 7 8 9 10 11 12 13 14 15 16 17 18 19 20 21 22 23 24 25 26 27 28 29 30 31 32 33 34 35 36 37 38 39 40 41 42 43 44 45 46 47 48 49 50
000
ASUS41 KCLE 190200
RWRCLE
OHIO REGIONAL WEATHER ROUNDUP
NATIONAL WEATHER SERVICE WILMINGTON, OH
900 PM EST WED JAN 18 2017

NOTE: "FAIR" INDICATES FEW OR NO CLOUDS BELOW 12,000 FEET WITH NO
SIGNIFICANT WEATHER AND/OR OBSTRUCTIONS TO VISIBILITY.

OHZ001>008-015>018-024>027-034-035-043-044-190300-
   NORTHWEST OHIO

CITY           SKY/WX    TMP DP  RH WIND       PRES   REMARKS
DEFIANCE       CLOUDY    34  33  96 SW7       30.10F WCI  28
FINDLAY        CLOUDY    37  33  85 SW10      30.08F
TOLEDO EXPRESS CLOUDY    35  35 100 W10       30.09R WCI  27
TOLEDO EXEC    CLOUDY    36  35  96 W9        30.11R
LIMA           CLOUDY    36  36 100 SW13      30.12R FOG
$$

OHZ009>014-019>023-028>033-038-089-190300-
   NORTHEAST OHIO

CITY           SKY/WX    TMP DP  RH WIND       PRES   REMARKS
CLE-HOPKINS    DRIZZLE   39  35  86 W10       30.11R
CLE-LAKEFRONT  CLOUDY    39  36  89 SW14      30.08R
CUY CO. ARPT   CLOUDY    39  37  93 W9        30.08R
LORAIN-ELYRIA  CLOUDY    37  33  85 W12       30.09S
ASHTABULA      CLOUDY    37  36  96 SW8       30.07S
AKRON-CANTON   CLOUDY    38  35  89 SW10      30.08S FOG
WOOSTER        NOT AVBL
MANSFIELD      CLOUDY    36  36 100 SW9       30.07F FOG
YOUNGSTOWN     CLOUDY    37  35  92 SW7       30.07S
$$

OHZ042-051>053-060>062-070>072-077>081-190300-
  SOUTHWEST OHIO

CITY           SKY/WX    TMP DP  RH WIND       PRES   REMARKS
CINC-COVINGTON CLOUDY    40  36  86 SW5       30.14F
CINC-LUNKEN    CLOUDY    41  37  86 SW7       30.18R
HAMILTON       CLOUDY    41  37  86 W10       30.17R
DAYTON         NOT AVBL
WRIGHT-PAT AFB CLOUDY    39  38  93 SW9       30.15R
DAYTON GENERAL CLOUDY    39  36  89 SW6       30.14R
WILMINGTON     CLOUDY    38  36  92 SW13      30.13R
$$

OHZ036-037-039>041-045>050-054>059-063>069-073>076-082>088-190300-
  CENTRAL AND SOUTHEAST OHIO

CITY           SKY/WX    TMP DP  RH WIND       PRES   REMARKS
COLUMBUS       CLOUDY    40  34  79 SW7       30.12F
OSU AIRPORT    CLOUDY    38  36  92 W5        30.12F
BOLTON FIELD   NOT AVBL
RICKENBACK AFB NOT AVBL
NEWARK         CLOUDY    39  35  86 SW8       30.11F
MARION         CLOUDY    36  34  92 SW9       30.10F
LANCASTER      CLOUDY    40  36  86 SW7       30.13F
ZANESVILLE     CLOUDY    39  35  86 SW5       30.12F
NEW PHILLY     CLOUDY    39  36  89 SW8       30.11F
$$




USA.gov is the U.S. government's official web portal to all federal, state and local government web resources and services.